[[{"header":{"parameterUnit":"m.s-1","parameterCategory":1,"la1":30.2991,"la2":30.254,"lo1":-89.0895,"lo2":-89.0444,"dy":0.0017,"dx":0.0017,"nx":28,"ny":28,"refTime":"2025-03-14T03:00:00:Z","depth":0,"parameterNumber":2,"parameterNumberName":"U-component_of_WINDS"},"data":[0,0,0,0,0,0,0,0,0,0,0,0,0,0,0,0,0,0,0,0,0,0,0,0,0,0,0,0,0,0,0,0,0,0,0,0,0,0,0,0,0,0,0,0,0,0,0,0,0,0,0,0,0,0,0,0,0,0,-2.9149,-2.915,0,-2.9199,-2.9199,-2.92,-2.9177,-2.9176,-2.9175,-2.9174,-2.9224,-2.9226,-2.9229,0,0,0,0,0,0,0,0,0,0,0,0,0,-2.9036,-2.9038,-2.9149,-2.915,-2.915,-2.9198,-2.9199,-2.92,-2.9177,-2.9176,-2.9175,-2.9173,-2.9223,-2.9226,-2.9229,0,0,0,0,0,0,0,0,0,0,0,0,0,-2.9085,-2.9039,-2.9149,-2.9145,-2.9145,-2.9198,-2.9199,-2.92,-2.9178,-2.9176,-2.9174,-2.9172,-2.9222,-2.9226,-2.9229,-2.9289,0,0,-2.9241,-2.9242,0,0,0,0,0,0,0,0,-2.9082,-2.9089,-2.9145,-2.9146,-2.9146,-2.918,-2.9178,-2.923,-2.9178,-2.9165,-2.9174,-2.9172,-2.9211,-2.9215,-2.9229,-2.9292,-2.9294,-2.9241,-2.9243,-2.9245,-2.9246,0,0,0,0,0,0,0,-2.9079,-2.9087,-2.9169,-2.9146,-2.9146,-2.9141,-2.9146,-2.9187,-2.9198,-2.9166,-2.9165,-2.9171,-2.9211,-2.9225,-2.923,-2.9294,-2.9241,-2.9244,-2.9247,-2.9248,-2.9408,-2.941,0,0,0,0,0,0,-2.9076,-2.9084,-2.9167,-2.917,-2.9109,-2.9144,-2.915,-2.9171,-2.9197,-2.92,-2.9173,-2.917,-2.922,-2.9225,-2.9231,-2.9302,-2.9245,-2.9248,-2.9251,-2.9406,-2.9408,-2.941,0,0,0,0,0,0,-2.9073,-2.9083,-2.9165,-2.9127,-2.9137,-2.9148,-2.9172,-2.9173,-2.9187,-2.9202,-2.9204,-2.9185,-2.9218,-2.9226,-2.9275,-2.9303,-2.925,-2.9254,-2.9403,-2.9407,-2.9409,-2.9443,0,0,0,0,0,0,-2.907,-2.9083,-2.9105,-2.9128,-2.9139,-2.9208,-2.9174,-2.9175,-2.9194,-2.919,-2.9214,-2.9217,-2.9218,-2.9269,-2.9278,-2.9307,-2.9256,-2.9401,-2.9405,-2.9408,-2.944,-2.9447,-2.9454,0,0,0,0,0,-2.9066,-2.9113,-2.9107,-2.9117,-2.9168,-2.921,-2.9216,-2.9216,-2.9196,-2.9219,-2.9228,-2.9216,-2.9299,-2.9274,-2.9285,-2.9315,-2.9399,-2.9404,-2.9408,-2.9437,-2.9446,-2.9453,0,0,0,0,0,0,-2.9094,-2.9116,-2.9109,-2.9165,-2.9185,-2.9206,-2.9234,-2.9226,-2.9253,-2.9249,-2.9248,-2.9253,-2.9303,-2.9315,-2.9287,-2.9374,-2.9346,-2.9353,-2.9364,-2.9373,-2.938,-2.9375,-2.926,0,0,0,0,0,-2.9107,-2.9139,-2.9156,-2.9204,-2.9215,-2.9223,-2.9241,-2.9239,-2.9261,-2.9269,-2.9283,-2.9304,-2.9335,-2.9355,-2.9384,-2.9442,-2.9446,-2.9468,-2.9475,-2.9481,-2.9486,-2.9516,-2.9525,-2.9425,-2.9425,-2.9425,0,0,-2.9133,-2.9149,-2.9169,-2.921,-2.9226,-2.9258,-2.923,-2.9267,-2.9291,-2.9275,-2.9321,-2.9332,-2.9355,-2.9409,-2.9433,-2.9419,-2.9515,-2.9486,-2.9491,-2.9493,-2.9521,-2.9531,-2.9539,-2.9428,-2.9428,-2.9427,0,0,-2.9197,-2.9213,-2.9253,-2.927,-2.9294,-2.93,-2.931,-2.9331,-2.9338,-2.9384,-2.9373,-2.9402,-2.9455,-2.9472,-2.9488,-2.9559,-2.9548,-2.9569,-2.9604,-2.9633,-2.9641,-2.9648,-2.9672,-2.968,-2.9574,-2.9575,-2.9575,0,-2.9226,-2.9275,-2.9275,-2.9312,-2.933,-2.9318,-2.9358,-2.9375,-2.9407,-2.942,-2.9405,-2.9471,-2.9486,-2.9542,-2.956,-2.9574,-2.9584,-2.9565,-2.964,-2.9647,-2.9654,-2.9676,-2.9685,-2.9577,-2.9576,-2.9576,-2.9576,0,-2.9309,-2.9343,-2.9373,-2.9405,-2.9426,-2.9465,-2.9471,-2.9493,-2.949,-2.9496,-2.9544,-2.9562,-2.9594,-2.9608,-2.9605,-2.9664,-2.9654,-2.964,-2.9612,-2.9665,-2.9686,-2.9695,-2.958,-2.9579,-2.9578,-2.9578,0,0,-2.939,-2.9422,-2.9432,-2.9446,-2.9473,-2.9499,-2.9537,-2.9569,-2.9587,-2.961,-2.9641,-2.9687,-2.9674,-2.9692,-2.9691,-2.9717,-2.977,-2.97,-2.97,-2.971,-2.9834,-2.9843,-2.9853,-2.9764,-2.9766,-2.9767,-2.9831,0,-2.9454,-2.9521,-2.9522,-2.9583,-2.9614,-2.9603,-2.9636,-2.9656,-2.9664,-2.9691,-2.97,-2.9732,-2.9713,-2.9723,-2.9749,-2.9759,-2.9795,-2.9754,-2.9792,-2.9793,-2.9784,-2.9864,-2.9874,-2.9933,-2.984,-2.9841,-2.9842,0,-2.9538,-2.9563,-2.9627,-2.9648,-2.9661,-2.9691,-2.9719,-2.9746,-2.9768,-2.9772,-2.9792,-2.9788,-2.9827,-2.9799,-2.9852,-2.9824,-2.984,-2.9847,-2.985,-2.9851,-2.9819,-2.9866,-2.9953,-2.9961,-2.9856,-2.9855,-2.9854,0,-2.9588,-2.9639,-2.9683,-2.9695,-2.9722,-2.9743,-2.9755,-2.9775,-2.9794,-2.9819,-2.9831,-2.9861,-2.9877,-2.99,-2.9903,-2.9883,-2.9956,-2.9929,-2.9959,-2.9959,-2.9973,-2.9971,-3.0061,-2.9987,-2.9987,-2.9987,-2.9987,0,-2.9658,-2.9697,-2.9705,-2.9732,-2.9775,-2.9777,-2.982,-2.9831,-2.9849,-2.9877,-2.9871,-2.9898,-2.9902,-2.993,-2.9934,-2.9976,-2.9984,-2.9987,-2.9987,-2.9987,-2.9986,-2.9995,-2.999,-2.9989,-2.9989,-2.9988,-2.9988,0,-2.972,-2.9728,-2.9775,-2.9796,-2.9803,-2.9833,-2.9851,-2.9877,-2.9885,-2.9921,-2.993,-2.9941,-2.9974,-2.9981,-3.002,-3.0022,-3.0071,-3.0068,-3.0063,-3.0062,-3.0091,-3.0088,-3.0188,-3.02,-3.0121,-3.0121,-3.0122,0,-2.9763,-2.9793,-2.9817,-2.9836,-2.9849,-2.9879,-2.9898,-2.9902,-2.9921,-2.9949,-2.9971,-3.0003,-3.0028,-3.0081,-3.0093,-3.0122,-3.0119,-3.0152,-3.0123,-3.0121,-3.0117,-3.0114,-3.0116,-3.0157,-3.0158,-3.0158,-3.0159,0,-2.9838,-2.9841,-2.9868,-2.9897,-2.9919,-2.9942,-2.9964,-2.998,-2.9986,-3.0009,-3.0042,-3.0062,-3.0101,-3.0133,-3.0162,-3.0175,-3.0167,-3.0168,-3.0176,-3.0175,-3.017,-3.0171,-3.0076,-3.0165,-3.0165,-3.0164,-3.0164,-3.0164,-2.9891,-2.9916,-2.9937,-2.9967,-2.9984,-3.0005,-3.0029,-3.004,-3.0068,-3.01,-3.0101,-3.0137,-3.0158,-3.0197,-3.0211,-3.0239,-3.0229,-3.0241,-3.0244,-3.0246,-3.0247,-3.0167,-3.0245,-3.0245,-3.0245,-3.0244,-3.0244,0,-2.9964,-2.9977,-3.0005,-3.0035,-3.0059,-3.0052,-3.0075,-3.0095,-3.0127,-3.0148,-3.0173,-3.0211,-3.0241,-3.0256,-3.0286,-3.0305,-3.0303,-3.0313,-3.031,-3.0313,-3.0256,-3.0245,-3.0314,-3.0314,-3.0314,-3.0314,-3.0314,-3.0314,-3.0004,-3.0046,-3.0051,-3.0101,-3.0113,-3.0148,-3.0162,-3.0181,-3.0197,-3.0239,-3.0265,-3.0274,-3.0292,-3.0324,-3.0351,-3.0355,-3.0365,-3.0376,-3.0378,-3.0324,-3.0317,-3.031,-3.03,-3.0379,-3.0379,-3.0432,-3.0432,-3.0433]},{"header":{"parameterUnit":"m.s-1","parameterCategory":1,"la1":30.2991,"la2":30.254,"lo1":-89.0895,"lo2":-89.0444,"dy":0.0017,"dx":0.0017,"nx":28,"ny":28,"refTime":"2025-03-14T03:00:00:Z","depth":0,"parameterNumber":3,"parameterNumberName":"V-component_of_WINDS"},"data":[0,0,0,0,0,0,0,0,0,0,0,0,0,0,0,0,0,0,0,0,0,0,0,0,0,0,0,0,0,0,0,0,0,0,0,0,0,0,0,0,0,0,0,0,0,0,0,0,0,0,0,0,0,0,0,0,0,0,2.7427,2.7428,0,2.7528,2.7529,2.7531,2.7547,2.7546,2.7545,2.7544,2.7649,2.7653,2.7656,0,0,0,0,0,0,0,0,0,0,0,0,0,2.7251,2.7254,2.7427,2.7429,2.743,2.7528,2.753,2.7531,2.7547,2.7546,2.7545,2.7544,2.7648,2.7652,2.7656,0,0,0,0,0,0,0,0,0,0,0,0,0,2.7337,2.7255,2.7427,2.745,2.7453,2.7528,2.753,2.7531,2.7547,2.7546,2.7545,2.7543,2.7646,2.7652,2.7657,2.7717,0,0,2.7674,2.7676,0,0,0,0,0,0,0,0,2.7332,2.7344,2.7445,2.7448,2.7452,2.7524,2.7506,2.7594,2.7548,2.7511,2.7544,2.7543,2.7608,2.7617,2.7639,2.7722,2.7726,2.7674,2.7677,2.768,2.7681,0,0,0,0,0,0,0,2.7326,2.734,2.7467,2.7447,2.7451,2.7456,2.7466,2.7522,2.7566,2.7515,2.7516,2.7528,2.761,2.7634,2.7641,2.7728,2.7674,2.7679,2.7682,2.7684,2.7868,2.787,0,0,0,0,0,0,2.7316,2.7334,2.7464,2.747,2.7388,2.746,2.7472,2.7502,2.7566,2.7574,2.7529,2.7528,2.7625,2.7635,2.7645,2.7722,2.768,2.7685,2.7688,2.7866,2.7868,2.787,0,0,0,0,0,0,2.7312,2.7327,2.746,2.7403,2.742,2.7464,2.7498,2.7505,2.7528,2.7576,2.7584,2.7545,2.7624,2.7638,2.77,2.7725,2.7687,2.7692,2.7864,2.7867,2.7869,2.7874,0,0,0,0,0,0,2.7307,2.7326,2.7349,2.7403,2.7423,2.7512,2.7499,2.7508,2.7537,2.7537,2.7593,2.7601,2.7624,2.7691,2.7705,2.7732,2.7696,2.7862,2.7866,2.7868,2.7871,2.7876,2.788,0,0,0,0,0,2.7301,2.7345,2.735,2.7365,2.7452,2.7513,2.7525,2.755,2.7539,2.7563,2.7594,2.76,2.772,2.7698,2.7713,2.7742,2.7861,2.7865,2.7868,2.787,2.7875,2.788,0,0,0,0,0,0,2.7293,2.7353,2.7358,2.7422,2.7462,2.7516,2.7547,2.7555,2.7599,2.7598,2.7627,2.764,2.7701,2.7728,2.7701,2.7805,2.779,2.7797,2.7785,2.7791,2.7795,2.7788,2.7701,0,0,0,0,0,2.7298,2.7342,2.7393,2.7444,2.7464,2.7502,2.753,2.7546,2.7589,2.7606,2.7642,2.7684,2.7732,2.7763,2.7809,2.7875,2.7889,2.7903,2.7907,2.791,2.7916,2.7956,2.7963,2.7882,2.7882,2.7882,0,0,2.731,2.7349,2.7375,2.7444,2.7477,2.7523,2.7516,2.7565,2.76,2.7614,2.7675,2.7703,2.7752,2.7817,2.7847,2.7841,2.7942,2.7915,2.7917,2.7922,2.796,2.7968,2.7975,2.7885,2.7884,2.7884,0,0,2.7357,2.7389,2.7437,2.747,2.7521,2.7546,2.7557,2.761,2.7629,2.7691,2.7703,2.7745,2.7826,2.7862,2.789,2.7951,2.7959,2.7965,2.7988,2.8026,2.8032,2.8038,2.8062,2.807,2.7971,2.7971,2.7971,0,2.7366,2.7435,2.746,2.7509,2.754,2.7554,2.7604,2.7635,2.7698,2.772,2.7712,2.7815,2.7849,2.7923,2.7939,2.796,2.7976,2.796,2.8029,2.8035,2.8041,2.8065,2.8073,2.7972,2.7972,2.7972,2.7972,0,2.7445,2.7493,2.7525,2.7587,2.7621,2.7669,2.7703,2.7735,2.7748,2.7774,2.7838,2.7879,2.7935,2.7954,2.7967,2.8031,2.8026,2.8023,2.8009,2.8049,2.8072,2.8081,2.7973,2.7972,2.7972,2.7972,0,0,2.7489,2.7564,2.7576,2.7605,2.7662,2.77,2.775,2.7805,2.7833,2.7876,2.792,2.7989,2.7987,2.8019,2.8037,2.807,2.8118,2.8063,2.8065,2.8074,2.8194,2.8198,2.8207,2.8123,2.8125,2.8126,2.8191,0,2.7544,2.7633,2.7658,2.7734,2.778,2.7795,2.7839,2.788,2.7906,2.7949,2.7978,2.8027,2.802,2.804,2.8073,2.8105,2.8143,2.8101,2.8166,2.8168,2.8155,2.8219,2.8222,2.8281,2.82,2.8201,2.8202,0,2.762,2.7665,2.7746,2.7799,2.782,2.7858,2.7912,2.7952,2.7999,2.8016,2.8053,2.8068,2.8122,2.8103,2.818,2.815,2.8178,2.8198,2.8201,2.821,2.8189,2.8231,2.83,2.831,2.8216,2.8215,2.8214,0,2.7647,2.7728,2.7788,2.7811,2.7874,2.7902,2.7929,2.7975,2.8007,2.8053,2.8075,2.8127,2.8156,2.8197,2.8226,2.8209,2.83,2.8284,2.8317,2.8317,2.8337,2.8336,2.8414,2.8352,2.8351,2.8351,2.8351,0,2.7707,2.7756,2.7801,2.7838,2.7894,2.7922,2.7978,2.8006,2.8047,2.809,2.8105,2.8146,2.8181,2.8227,2.8249,2.831,2.8323,2.8339,2.8345,2.8339,2.8337,2.8359,2.8357,2.8354,2.8353,2.8353,2.8352,0,2.7748,2.7779,2.7845,2.79,2.7915,2.7954,2.8001,2.8038,2.8065,2.812,2.8134,2.8176,2.8231,2.8263,2.8332,2.8348,2.8416,2.8419,2.8401,2.8404,2.8436,2.8434,2.8533,2.8549,2.8474,2.8474,2.8475,0,2.7785,2.7823,2.7882,2.7912,2.794,2.7988,2.8021,2.8051,2.8085,2.8142,2.8172,2.8228,2.8274,2.8361,2.8399,2.8452,2.8458,2.8489,2.8466,2.846,2.8462,2.846,2.8465,2.8494,2.8494,2.8495,2.8495,0,2.7848,2.7862,2.7909,2.7962,2.8,2.8043,2.8086,2.811,2.8147,2.8184,2.824,2.8276,2.8347,2.8403,2.846,2.8489,2.85,2.8502,2.8513,2.8509,2.8497,2.8506,2.8414,2.85,2.85,2.8499,2.8499,2.8499,2.789,2.7926,2.7973,2.8025,2.8061,2.81,2.8139,2.817,2.8217,2.8277,2.8292,2.8351,2.8399,2.8476,2.8507,2.8555,2.855,2.8566,2.857,2.8574,2.8576,2.8488,2.8565,2.8565,2.8565,2.8565,2.8565,0,2.7957,2.7988,2.8035,2.8095,2.8136,2.8141,2.8189,2.8223,2.8276,2.8319,2.8364,2.843,2.8485,2.8526,2.8583,2.8613,2.8619,2.8627,2.8627,2.8634,2.8576,2.8562,2.8622,2.8622,2.8622,2.8622,2.8622,2.8621,2.7996,2.8058,2.8078,2.8158,2.8189,2.8247,2.8275,2.8312,2.8347,2.842,2.8465,2.8492,2.8535,2.8595,2.8646,2.8657,2.8678,2.8685,2.8697,2.8643,2.8637,2.8632,2.8619,2.8689,2.8689,2.8751,2.8752,2.8752]}]]